Time,TemperatureF,DewpointF,PressureIn,WindDirection,WindDirectionDegrees,WindSpeedMPH,WindSpeedGustMPH,Humidity,HourlyPrecipIn,Conditions,Clouds,dailyrainin,SoftwareType,DateUTC
2013-03-26 00:12:00,43.0,34.0,30.00,North,0,0.0,-999.0,70,-99.99,,,-99.99,,2013-03-26 07:12:00,
2013-03-26 00:22:00,43.0,34.0,30.00,North,0,0.0,-999.0,70,-99.99,,,-99.99,,2013-03-26 07:22:00,
2013-03-26 00:32:00,43.0,34.0,30.00,North,0,0.0,-999.0,70,-99.99,,,-99.99,,2013-03-26 07:32:00,
2013-03-26 00:42:00,43.0,34.0,30.00,North,0,0.0,-999.0,70,-99.99,,,-99.99,,2013-03-26 07:42:00,
2013-03-26 00:52:00,43.0,34.0,30.00,North,0,0.0,-999.0,70,-99.99,,,-99.99,,2013-03-26 07:52:00,
2013-03-26 01:12:00,41.0,34.0,29.99,South,190,5.0,-999.0,75,-99.99,,,-99.99,,2013-03-26 08:12:00,
2013-03-26 01:22:00,41.0,34.0,29.99,South,190,5.0,-999.0,75,-99.99,,,-99.99,,2013-03-26 08:22:00,
2013-03-26 01:32:00,41.0,34.0,29.99,South,190,5.0,-999.0,75,-99.99,,,-99.99,,2013-03-26 08:32:00,
2013-03-26 01:42:00,41.0,34.0,29.99,South,190,6.0,-999.0,75,-99.99,,,-99.99,,2013-03-26 08:42:00,
2013-03-26 01:52:00,41.0,34.0,29.99,South,190,6.0,-999.0,75,-99.99,,,-99.99,,2013-03-26 08:52:00,
2013-03-26 02:12:00,39.0,34.0,30.00,SSW,210,6.0,-999.0,80,-99.99,,,-99.99,,2013-03-26 09:12:00,
2013-03-26 02:22:00,39.0,34.0,30.00,SSW,210,6.0,-999.0,80,-99.99,,,-99.99,,2013-03-26 09:22:00,
2013-03-26 02:32:00,39.0,34.0,30.00,SSW,210,6.0,-999.0,80,-99.99,,,-99.99,,2013-03-26 09:32:00,
2013-03-26 02:42:00,39.0,34.0,30.00,SSW,200,5.0,-999.0,80,-99.99,,,-99.99,,2013-03-26 09:42:00,
2013-03-26 02:52:00,39.0,34.0,30.00,SSW,200,5.0,-999.0,80,-99.99,,,-99.99,,2013-03-26 09:52:00,
2013-03-26 03:42:00,41.0,34.0,29.99,SW,220,9.0,-999.0,75,-99.99,,,-99.99,,2013-03-26 10:42:00,
2013-03-26 03:52:00,41.0,34.0,29.99,SW,220,9.0,-999.0,75,-99.99,,,-99.99,,2013-03-26 10:52:00,
2013-03-26 04:12:00,41.0,34.0,29.99,SW,220,5.0,-999.0,75,-99.99,,,-99.99,,2013-03-26 11:12:00,
2013-03-26 04:22:00,41.0,34.0,29.99,SW,220,5.0,-999.0,75,-99.99,,,-99.99,,2013-03-26 11:22:00,
2013-03-26 04:32:00,41.0,34.0,29.99,SW,220,5.0,-999.0,75,-99.99,,,-99.99,,2013-03-26 11:32:00,
2013-03-26 04:42:00,39.0,34.0,29.99,SSW,210,6.0,-999.0,80,-99.99,,,-99.99,,2013-03-26 11:42:00,
2013-03-26 04:52:00,39.0,34.0,29.99,SSW,210,6.0,-999.0,80,-99.99,,,-99.99,,2013-03-26 11:52:00,
2013-03-26 05:12:00,39.0,34.0,30.00,South,190,6.0,-999.0,80,-99.99,,,-99.99,,2013-03-26 12:12:00,
2013-03-26 05:21:00,39.0,34.0,30.00,South,190,6.0,-999.0,80,-99.99,,,-99.99,,2013-03-26 12:21:00,
2013-03-26 05:32:00,39.0,34.0,30.00,South,190,6.0,-999.0,80,-99.99,,,-99.99,,2013-03-26 12:32:00,
2013-03-26 05:42:00,37.0,34.0,29.99,North,0,0.0,-999.0,86,-99.99,,,-99.99,,2013-03-26 12:42:00,
2013-03-26 05:52:00,37.0,34.0,29.99,North,0,0.0,-999.0,86,-99.99,,,-99.99,,2013-03-26 12:52:00,
2013-03-26 06:12:00,37.0,34.0,30.00,North,0,0.0,-999.0,86,-99.99,,,-99.99,,2013-03-26 13:12:00,
2013-03-26 06:22:00,37.0,34.0,30.00,North,0,0.0,-999.0,86,-99.99,,,-99.99,,2013-03-26 13:22:00,
2013-03-26 06:32:00,37.0,34.0,30.00,North,0,0.0,-999.0,86,-99.99,,,-99.99,,2013-03-26 13:32:00,
2013-03-26 06:42:00,37.0,34.0,30.00,North,0,0.0,-999.0,86,-99.99,,,-99.99,,2013-03-26 13:42:00,
2013-03-26 06:52:00,37.0,34.0,30.00,North,0,0.0,-999.0,86,-99.99,,,-99.99,,2013-03-26 13:52:00,
2013-03-26 07:42:00,39.0,36.0,30.01,SSW,200,3.0,-999.0,86,-99.99,,,-99.99,,2013-03-26 14:42:00,
2013-03-26 07:52:00,39.0,36.0,30.01,SSW,200,3.0,-999.0,86,-99.99,,,-99.99,,2013-03-26 14:52:00,
2013-03-26 08:12:00,39.0,34.0,30.01,North,0,0.0,-999.0,80,-99.99,,,-99.99,,2013-03-26 15:12:00,
2013-03-26 08:22:00,39.0,34.0,30.01,North,0,0.0,-999.0,80,-99.99,,,-99.99,,2013-03-26 15:22:00,
2013-03-26 08:33:00,39.0,34.0,30.01,North,0,0.0,-999.0,80,-99.99,,,-99.99,,2013-03-26 15:33:00,
2013-03-26 08:42:00,39.0,36.0,30.01,North,0,0.0,-999.0,86,-99.99,,,-99.99,,2013-03-26 15:42:00,
2013-03-26 08:52:00,39.0,36.0,30.01,North,0,0.0,-999.0,86,-99.99,,,-99.99,,2013-03-26 15:52:00,
2013-03-26 09:12:00,41.0,36.0,30.02,North,0,0.0,-999.0,80,-99.99,,,-99.99,,2013-03-26 16:12:00,
2013-03-26 09:22:00,41.0,36.0,30.02,North,0,0.0,-999.0,80,-99.99,,,-99.99,,2013-03-26 16:22:00,
2013-03-26 09:32:00,41.0,36.0,30.02,North,0,0.0,-999.0,80,-99.99,,,-99.99,,2013-03-26 16:32:00,
2013-03-26 09:42:00,41.0,36.0,30.02,North,0,0.0,-999.0,80,-99.99,,,-99.99,,2013-03-26 16:42:00,
2013-03-26 09:53:00,41.0,36.0,30.02,North,0,0.0,-999.0,80,-99.99,,,-99.99,,2013-03-26 16:53:00,
2013-03-26 10:42:00,43.0,37.0,30.02,North,0,0.0,-999.0,81,-99.99,,,-99.99,,2013-03-26 17:42:00,
2013-03-26 10:52:00,43.0,37.0,30.02,North,0,0.0,-999.0,81,-99.99,,,-99.99,,2013-03-26 17:52:00,
2013-03-26 11:12:00,46.0,37.0,30.02,North,0,0.0,-999.0,70,-99.99,,,-99.99,,2013-03-26 18:12:00,
2013-03-26 11:23:00,46.0,37.0,30.02,North,0,0.0,-999.0,70,-99.99,,,-99.99,,2013-03-26 18:23:00,
2013-03-26 11:33:00,46.0,37.0,30.02,North,0,0.0,-999.0,70,-99.99,,,-99.99,,2013-03-26 18:33:00,
2013-03-26 11:42:00,46.0,36.0,30.02,North,0,0.0,-999.0,65,-99.99,,,-99.99,,2013-03-26 18:42:00,
2013-03-26 11:52:00,46.0,36.0,30.02,North,0,0.0,-999.0,65,-99.99,,,-99.99,,2013-03-26 18:52:00,
2013-03-26 12:12:00,48.0,36.0,30.02,North,0,0.0,-999.0,61,-99.99,,,-99.99,,2013-03-26 19:12:00,
2013-03-26 12:22:00,48.0,36.0,30.02,North,0,0.0,-999.0,61,-99.99,,,-99.99,,2013-03-26 19:22:00,
2013-03-26 12:32:00,48.0,36.0,30.02,North,0,0.0,-999.0,61,-99.99,,,-99.99,,2013-03-26 19:32:00,
2013-03-26 12:42:00,48.0,37.0,30.02,North,0,0.0,-999.0,66,-99.99,,,-99.99,,2013-03-26 19:42:00,
2013-03-26 12:52:00,48.0,37.0,30.02,North,0,0.0,-999.0,66,-99.99,,,-99.99,,2013-03-26 19:52:00,
2013-03-26 13:42:00,50.0,37.0,30.01,North,0,0.0,-999.0,61,-99.99,,,-99.99,,2013-03-26 20:42:00,
2013-03-26 13:52:00,50.0,37.0,30.01,North,0,0.0,-999.0,61,-99.99,,,-99.99,,2013-03-26 20:52:00,
2013-03-26 14:12:00,52.0,36.0,30.00,North,0,0.0,-999.0,53,-99.99,,,-99.99,,2013-03-26 21:12:00,
2013-03-26 14:22:00,52.0,36.0,30.00,North,0,0.0,-999.0,53,-99.99,,,-99.99,,2013-03-26 21:22:00,
2013-03-26 14:32:00,52.0,36.0,30.00,North,0,0.0,-999.0,53,-99.99,,,-99.99,,2013-03-26 21:32:00,
2013-03-26 14:42:00,52.0,36.0,30.00,North,0,0.0,-999.0,53,-99.99,,,-99.99,,2013-03-26 21:42:00,
2013-03-26 14:52:00,52.0,36.0,30.00,North,0,0.0,-999.0,53,-99.99,,,-99.99,,2013-03-26 21:52:00,
2013-03-26 15:12:00,54.0,36.0,29.99,NNW,340,5.0,-999.0,50,-99.99,,,-99.99,,2013-03-26 22:12:00,
2013-03-26 15:22:00,54.0,36.0,29.99,NNW,340,5.0,-999.0,50,-99.99,,,-99.99,,2013-03-26 22:22:00,
2013-03-26 15:32:00,54.0,36.0,29.99,NNW,340,5.0,-999.0,50,-99.99,,,-99.99,,2013-03-26 22:32:00,
2013-03-26 15:42:00,54.0,36.0,29.98,NW,320,5.0,-999.0,50,-99.99,,,-99.99,,2013-03-26 22:42:00,
2013-03-26 15:52:00,54.0,36.0,29.98,NW,320,5.0,-999.0,50,-99.99,,,-99.99,,2013-03-26 22:52:00,
2013-03-26 16:10:00,55.0,36.0,29.97,NNW,340,5.0,-999.0,47,-99.99,,,-99.99,,2013-03-26 23:10:00,
2013-03-26 16:22:00,55.0,36.0,29.97,NNW,340,5.0,-999.0,47,-99.99,,,-99.99,,2013-03-26 23:22:00,
2013-03-26 16:31:00,55.0,36.0,29.97,NNW,340,5.0,-999.0,47,-99.99,,,-99.99,,2013-03-26 23:31:00,
2013-03-26 16:42:00,55.0,34.0,29.97,NNW,340,3.0,-999.0,43,-99.99,,,-99.99,,2013-03-26 23:42:00,
2013-03-26 16:52:00,55.0,34.0,29.97,NNW,340,3.0,-999.0,43,-99.99,,,-99.99,,2013-03-26 23:52:00,
2013-03-26 17:12:00,55.0,34.0,29.97,North,0,0.0,-999.0,43,-99.99,,,-99.99,,2013-03-27 00:12:00,
2013-03-26 17:22:00,55.0,34.0,29.97,North,0,0.0,-999.0,43,-99.99,,,-99.99,,2013-03-27 00:22:00,
2013-03-26 17:32:00,55.0,34.0,29.97,North,0,0.0,-999.0,43,-99.99,,,-99.99,,2013-03-27 00:32:00,
2013-03-26 17:42:00,55.0,32.0,29.96,North,0,0.0,-999.0,40,-99.99,,,-99.99,,2013-03-27 00:42:00,
2013-03-26 17:52:00,55.0,32.0,29.96,North,0,0.0,-999.0,40,-99.99,,,-99.99,,2013-03-27 00:52:00,
2013-03-26 18:12:00,55.0,32.0,29.96,North,0,0.0,-999.0,40,-99.99,,,-99.99,,2013-03-27 01:12:00,
2013-03-26 18:22:00,55.0,32.0,29.96,North,0,0.0,-999.0,40,-99.99,,,-99.99,,2013-03-27 01:22:00,
2013-03-26 18:32:00,55.0,32.0,29.96,North,0,0.0,-999.0,40,-99.99,,,-99.99,,2013-03-27 01:32:00,
2013-03-26 18:42:00,54.0,37.0,29.96,North,0,0.0,-999.0,54,-99.99,,,-99.99,,2013-03-27 01:42:00,
2013-03-26 18:52:00,54.0,37.0,29.96,North,0,0.0,-999.0,54,-99.99,,,-99.99,,2013-03-27 01:52:00,
2013-03-26 19:12:00,54.0,39.0,29.95,North,0,0.0,-999.0,58,-99.99,,,-99.99,,2013-03-27 02:12:00,
2013-03-26 19:22:00,54.0,39.0,29.95,North,0,0.0,-999.0,58,-99.99,,,-99.99,,2013-03-27 02:22:00,
2013-03-26 19:32:00,54.0,39.0,29.95,North,0,0.0,-999.0,58,-99.99,,,-99.99,,2013-03-27 02:32:00,
2013-03-26 19:42:00,52.0,39.0,29.96,North,0,0.0,-999.0,62,-99.99,,,-99.99,,2013-03-27 02:42:00,
2013-03-26 19:52:00,52.0,39.0,29.96,North,0,0.0,-999.0,62,-99.99,,,-99.99,,2013-03-27 02:52:00,
2013-03-26 20:12:00,50.0,41.0,29.96,North,0,0.0,-999.0,71,-99.99,,,-99.99,,2013-03-27 03:12:00,
2013-03-26 20:22:00,50.0,41.0,29.96,North,0,0.0,-999.0,71,-99.99,,,-99.99,,2013-03-27 03:22:00,
2013-03-26 20:33:00,50.0,41.0,29.96,North,0,0.0,-999.0,71,-99.99,,,-99.99,,2013-03-27 03:33:00,
2013-03-26 20:42:00,50.0,41.0,29.96,North,0,0.0,-999.0,71,-99.99,,,-99.99,,2013-03-27 03:42:00,
2013-03-26 20:52:00,50.0,41.0,29.96,North,0,0.0,-999.0,71,-99.99,,,-99.99,,2013-03-27 03:52:00,
2013-03-26 21:12:00,48.0,41.0,29.97,North,0,0.0,-999.0,76,-99.99,,,-99.99,,2013-03-27 04:12:00,
2013-03-26 21:23:00,48.0,41.0,29.97,North,0,0.0,-999.0,76,-99.99,,,-99.99,,2013-03-27 04:23:00,
2013-03-26 21:33:00,48.0,41.0,29.97,North,0,0.0,-999.0,76,-99.99,,,-99.99,,2013-03-27 04:33:00,
2013-03-26 21:42:00,48.0,41.0,29.97,North,0,0.0,-999.0,76,-99.99,,,-99.99,,2013-03-27 04:42:00,
2013-03-26 21:52:00,48.0,41.0,29.97,North,0,0.0,-999.0,76,-99.99,,,-99.99,,2013-03-27 04:52:00,
2013-03-26 22:12:00,48.0,41.0,29.97,North,0,0.0,-999.0,76,-99.99,,,-99.99,,2013-03-27 05:12:00,
2013-03-26 22:22:00,48.0,41.0,29.97,North,0,0.0,-999.0,76,-99.99,,,-99.99,,2013-03-27 05:22:00,
2013-03-26 22:32:00,48.0,41.0,29.97,North,0,0.0,-999.0,76,-99.99,,,-99.99,,2013-03-27 05:32:00,
2013-03-26 22:42:00,48.0,41.0,29.98,North,0,0.0,-999.0,76,-99.99,,,-99.99,,2013-03-27 05:42:00,
2013-03-26 22:52:00,48.0,41.0,29.98,North,0,0.0,-999.0,76,-99.99,,,-99.99,,2013-03-27 05:52:00,
2013-03-26 23:12:00,48.0,41.0,29.98,North,0,0.0,-999.0,76,-99.99,,,-99.99,,2013-03-27 06:12:00,
2013-03-26 23:22:00,48.0,41.0,29.98,North,0,0.0,-999.0,76,-99.99,,,-99.99,,2013-03-27 06:22:00,
2013-03-26 23:32:00,48.0,41.0,29.98,North,0,0.0,-999.0,76,-99.99,,,-99.99,,2013-03-27 06:32:00,
2013-03-26 23:42:00,48.0,41.0,29.98,North,0,0.0,-999.0,76,-99.99,,,-99.99,,2013-03-27 06:42:00,
2013-03-26 23:52:00,48.0,41.0,29.98,North,0,0.0,-999.0,76,-99.99,,,-99.99,,2013-03-27 06:52:00,